Weather History for Taylorville, IL

Change the Weather History Date:

Friday, March 8, 2013

  Actual Average (KSPI) Record (KSPI)
Temperature  
Mean Temperature 37 °F 39 °F  
Max Temperature 48 °F 49 °F 79 °F (2000)
Min Temperature 26 °F 30 °F 2 °F (1996)
Degree Days  
Heating Degree Days 28 26  
Month to date heating degree days 219  
Since 1 July heating degree days 4490  
Cooling Degree Days 0 0  
Month to date cooling degree days 0  
Year to date cooling degree days 0  
Moisture  
Dew Point 29 °F    
Average Humidity 75    
Maximum Humidity 100    
Minimum Humidity 57    
Precipitation  
Precipitation 0.00 in 0.09 in 1.91 in (1893)
Month to date precipitation 0.65  
Year to date precipitation 4.28  
Snow  
Snow 0.00 in 0.10 in 6.30 in (1999)
Month to date snowfall 0.9  
Since 1 July snowfall 19.0  
Snow Depth -    
Sea Level Pressure  
Sea Level Pressure 30.36 in    
Wind  
Wind Speed 7 mph (ESE)    
Max Wind Speed 14 mph    
Max Gust Speed 20 mph    
Visibility 10 miles    
Events Rain    
T = Trace of Precipitation, MM = Missing Value Source: NWS Daily Summary

Daily Weather History Graph

Daily Weather History Graph

Search for Another Location

Airport:

Trip Planner

Search our weather history database for the weather conditions in past years. The results will help you decide how hot, cold, wet, or windy it might be!

Date:

Astronomy

Mar. 08, 2013 Rise Set
Actual Time 6:19 AM CST 5:57 PM CST
Civil Twilight 5:52 AM CST 6:24 PM CST
Nautical Twilight 5:21 AM CST 6:55 PM CST
Astronomical Twilight 4:50 AM CST 7:26 PM CST
Moon 4:02 AM CST (3/8) 2:52 PM CST (3/8)
Length of Visible Light 12h 31m
Length of Day
11h 38m
Waning Crescent, 11% of the Moon is Illuminated
Mar 8
Waning Crescent
Mar 11
New
Mar 19
First Quarter
Mar 27
Full
Apr 2
Last Quarter

Hourly Weather History & Observations

Time (CST) Temp. Windchill Dew Point Humidity Pressure Visibility Wind Dir Wind Speed Gust Speed Precip Events Conditions
12:15 AM 28.4 °F 24.6 °F 26.6 °F 93% 30.39 in 10.0 mi SE 3.5 mph - N/A   Clear
12:35 AM 28.4 °F 22.2 °F 26.6 °F 93% 30.38 in 7.0 mi East 5.8 mph - N/A   Clear
12:55 AM 28.4 °F 22.2 °F 26.6 °F 93% 30.39 in 10.0 mi ESE 5.8 mph - N/A   Clear
1:15 AM 28.4 °F 23.3 °F 24.8 °F 86% 30.40 in 10.0 mi East 4.6 mph - N/A   Clear
1:35 AM 28.4 °F 22.2 °F 24.8 °F 86% 30.39 in 10.0 mi East 5.8 mph - N/A   Clear
1:55 AM 28.4 °F 23.3 °F 24.8 °F 86% 30.40 in 10.0 mi ESE 4.6 mph - N/A   Clear
2:15 AM 28.4 °F 22.2 °F 24.8 °F 86% 30.39 in 10.0 mi ESE 5.8 mph - N/A   Clear
2:35 AM 28.4 °F 21.2 °F 24.8 °F 86% 30.39 in 10.0 mi East 6.9 mph - N/A   Clear
2:55 AM 28.4 °F 23.3 °F 24.8 °F 86% 30.39 in 10.0 mi East 4.6 mph - N/A   Clear
3:15 AM 28.4 °F 23.3 °F 24.8 °F 86% 30.39 in 10.0 mi ESE 4.6 mph - N/A   Clear
3:35 AM 26.6 °F 22.6 °F 24.8 °F 93% 30.39 in 10.0 mi ESE 3.5 mph - N/A   Clear
3:55 AM 26.6 °F 21.2 °F 24.8 °F 93% 30.40 in 10.0 mi ESE 4.6 mph - N/A   Clear
4:15 AM 26.6 °F 21.2 °F 24.8 °F 93% 30.40 in 7.0 mi ESE 4.6 mph - N/A   Clear
4:35 AM 26.6 °F 21.2 °F 24.8 °F 93% 30.40 in 7.0 mi ESE 4.6 mph - N/A   Clear
4:55 AM 26.6 °F 21.2 °F 24.8 °F 93% 30.40 in 7.0 mi ESE 4.6 mph - N/A   Clear
5:15 AM 26.6 °F 20.0 °F 24.8 °F 93% 30.40 in 7.0 mi ESE 5.8 mph - N/A   Clear
5:35 AM 26.6 °F 20.0 °F 26.6 °F 100% 30.41 in 7.0 mi ESE 5.8 mph - N/A   Clear
5:55 AM 26.6 °F 20.0 °F 24.8 °F 93% 30.41 in 7.0 mi ESE 5.8 mph - N/A   Clear
6:15 AM 26.6 °F 18.2 °F 24.8 °F 93% 30.41 in 7.0 mi ESE 8.1 mph - N/A   Clear
6:35 AM 26.6 °F 17.5 °F 26.6 °F 100% 30.41 in 7.0 mi ESE 9.2 mph - N/A   Clear
6:55 AM 28.4 °F 21.2 °F 24.8 °F 86% 30.42 in 7.0 mi ESE 6.9 mph - N/A   Clear
7:15 AM 30.2 °F 22.6 °F 26.6 °F 86% 30.42 in 10.0 mi ESE 8.1 mph - N/A   Clear
7:35 AM 30.2 °F 21.9 °F 26.6 °F 86% 30.42 in 10.0 mi ESE 9.2 mph - N/A   Clear
7:55 AM 32.0 °F 24.2 °F 26.6 °F 80% 30.42 in 10.0 mi ESE 9.2 mph - N/A   Clear
8:15 AM 33.8 °F 25.8 °F 26.6 °F 75% 30.42 in 10.0 mi SE 10.4 mph - N/A   Clear
8:35 AM 33.8 °F 26.4 °F 26.6 °F 75% 30.42 in 10.0 mi ESE 9.2 mph - N/A   Clear
8:55 AM 35.6 °F 27.5 °F 26.6 °F 70% 30.43 in 10.0 mi SE 11.5 mph - N/A   Clear
9:15 AM 35.6 °F 27.5 °F 26.6 °F 70% 30.44 in 10.0 mi SE 11.5 mph - N/A   Clear
9:35 AM 35.6 °F 28.0 °F 28.4 °F 75% 30.44 in 10.0 mi SSE 10.4 mph - N/A   Clear
9:55 AM 37.4 °F 28.9 °F 28.4 °F 70% 30.44 in 10.0 mi SSE 13.8 mph - N/A   Clear
10:15 AM 37.4 °F 29.3 °F 28.4 °F 70% 30.44 in 10.0 mi SE 12.7 mph - N/A   Clear
10:35 AM 37.4 °F 29.8 °F 28.4 °F 70% 30.43 in 10.0 mi SE 11.5 mph - N/A   Clear
10:55 AM 39.2 °F 31.6 °F 28.4 °F 65% 30.43 in 10.0 mi SSE 12.7 mph - N/A   Clear
11:15 AM 39.2 °F 32.5 °F 30.2 °F 70% 30.42 in 10.0 mi SE 10.4 mph 18.4 mph N/A   Clear
11:35 AM 41.0 °F 33.9 °F 30.2 °F 65% 30.41 in 10.0 mi SE 12.7 mph 16.1 mph N/A   Clear
11:55 AM 42.8 °F 37.5 °F 30.2 °F 61% 30.41 in 10.0 mi SE 9.2 mph - N/A   Clear
12:15 PM 42.8 °F 37.0 °F 30.2 °F 61% 30.39 in 10.0 mi SE 10.4 mph - N/A   Clear
12:35 PM 42.8 °F 35.8 °F 30.2 °F 61% 30.36 in 10.0 mi East 13.8 mph - N/A   Clear
12:55 PM 44.6 °F 38.4 °F 32.0 °F 61% 30.35 in 10.0 mi East 12.7 mph - N/A   Clear
1:15 PM 44.6 °F 38.8 °F 30.2 °F 57% 30.34 in 10.0 mi ESE 11.5 mph 17.3 mph N/A   Clear
1:35 PM 44.6 °F 38.4 °F 32.0 °F 61% 30.34 in 10.0 mi SE 12.7 mph 17.3 mph N/A   Clear
1:55 PM 46.4 °F 41.1 °F 33.8 °F 62% 30.33 in 10.0 mi SE 11.5 mph 16.1 mph N/A   Clear
2:15 PM 46.4 °F 41.9 °F 33.8 °F 62% 30.32 in 10.0 mi SSE 9.2 mph - N/A   Unknown
2:55 PM 46.4 °F 41.5 °F 33.8 °F 62% 30.31 in 10.0 mi ESE 10.4 mph - N/A   Clear
3:15 PM 48.2 °F - 33.8 °F 58% 30.31 in 10.0 mi ESE 12.7 mph - N/A   Clear
3:35 PM 46.4 °F 41.9 °F 33.8 °F 62% 30.31 in 10.0 mi SE 9.2 mph - N/A   Clear
3:55 PM 46.4 °F 41.1 °F 32.0 °F 57% 30.31 in 10.0 mi SE 11.5 mph - N/A   Clear
4:15 PM 46.4 °F 41.5 °F 32.0 °F 57% 30.30 in 10.0 mi SE 10.4 mph - N/A   Clear
4:35 PM 46.4 °F 41.5 °F 32.0 °F 57% 30.30 in 10.0 mi ESE 10.4 mph - N/A   Clear
4:55 PM 46.4 °F 42.4 °F 32.0 °F 57% 30.31 in 10.0 mi SE 8.1 mph - N/A   Clear
5:15 PM 44.6 °F 40.2 °F 32.0 °F 61% 30.31 in 10.0 mi SE 8.1 mph - N/A   Clear
5:35 PM 44.6 °F 41.4 °F 32.0 °F 61% 30.32 in 10.0 mi ESE 5.8 mph - N/A   Clear
5:55 PM 42.8 °F 40.1 °F 32.0 °F 66% 30.31 in 10.0 mi East 4.6 mph - N/A   Clear
6:15 PM 42.8 °F 39.3 °F 32.0 °F 66% 30.31 in 10.0 mi ESE 5.8 mph - N/A   Clear
6:35 PM 41.0 °F 37.1 °F 32.0 °F 70% 30.30 in 10.0 mi ESE 5.8 mph - N/A   Clear
6:55 PM 39.2 °F 35.9 °F 32.0 °F 75% 30.31 in 10.0 mi SE 4.6 mph - N/A   Clear
7:15 PM 39.2 °F 35.0 °F 32.0 °F 75% 30.30 in 10.0 mi ESE 5.8 mph - N/A   Clear
7:35 PM 39.2 °F 33.6 °F 32.0 °F 75% 30.30 in 10.0 mi East 8.1 mph - N/A   Clear
7:55 PM 39.2 °F 33.0 °F 32.0 °F 75% 30.29 in 10.0 mi East 9.2 mph - N/A   Clear
8:15 PM 39.2 °F 32.5 °F 32.0 °F 75% 30.28 in - East 10.4 mph - N/A   Clear
8:35 PM 39.2 °F 33.6 °F 32.0 °F 75% 30.29 in 10.0 mi ESE 8.1 mph - N/A   Clear
8:55 PM 39.2 °F 33.6 °F 32.0 °F 75% 30.29 in 10.0 mi ESE 8.1 mph - N/A   Clear
9:15 PM 39.2 °F 32.5 °F 32.0 °F 75% 30.28 in 10.0 mi ESE 10.4 mph - N/A   Clear
9:35 PM 39.2 °F 33.0 °F 32.0 °F 75% 30.28 in 10.0 mi SE 9.2 mph - N/A   Clear
9:55 PM 39.2 °F 33.6 °F 32.0 °F 75% 30.29 in 10.0 mi ESE 8.1 mph - N/A   Clear
10:15 PM 39.2 °F 32.5 °F 32.0 °F 75% 30.26 in 10.0 mi ESE 10.4 mph - N/A   Scattered Clouds
10:35 PM 39.2 °F 32.0 °F 30.2 °F 70% 30.26 in 10.0 mi SE 11.5 mph - N/A   Scattered Clouds
10:55 PM 39.2 °F 32.5 °F 30.2 °F 70% 30.26 in 10.0 mi SE 10.4 mph - N/A   Overcast
11:15 PM 39.2 °F 31.2 °F 32.0 °F 75% 30.24 in 10.0 mi ESE 13.8 mph 19.6 mph N/A   Light Drizzle
11:35 PM 39.2 °F 32.0 °F 32.0 °F 75% 30.24 in 10.0 mi SE 11.5 mph - N/A Rain Light Rain
11:55 PM 39.2 °F 31.2 °F 32.0 °F 75% 30.21 in 10.0 mi ESE 13.8 mph - N/A   Mostly Cloudy